Location: Unspecified
(0.0000°N, 0.0000°E)
Time: 22:52:06
(UTC+00:00)

Transit 2A - Visible Passes

Search period start: 12 December 2018 00:00
Search period end: 22 December 2018 00:00
Orbit: 596 x 963 km, 66.7° (Epoch: 12 December)

Date Brightness Start Highest point End Pass type
(mag) Time Alt. Az. Time Alt. Az. Time Alt. Az.
15 Dec 8.4 20:37:33 10° SW 20:38:15 14° SW 20:38:15 14° SW visible
16 Dec 7.0 20:03:18 10° SSW 20:05:42 33° SSW 20:05:42 33° SSW visible
17 Dec 5.8 19:29:24 10° S 19:33:13 49° SE 19:33:13 49° SE visible
18 Dec 6.6 18:55:53 10° SSE 18:59:33 27° ESE 19:00:47 23° E visible
18 Dec 8.6 20:41:17 10° W 20:41:20 10° W 20:41:20 10° W visible
19 Dec 7.3 18:23:03 10° SE 18:25:30 15° ESE 18:27:58 10° ENE visible
19 Dec 7.6 20:05:09 10° WSW 20:08:21 20° WNW 20:08:59 20° WNW visible
20 Dec 6.8 19:30:19 10° SW 19:34:17 37° WNW 19:36:40 21° NNW visible
21 Dec 5.7 18:55:58 10° SSW 19:00:15 71° WNW 19:04:25 11° NNE visible
